FW0743 Weather Reports


time (UTC)temp
C
wind
direction
speed
KPH
gust
KPH
rain 1hr
cm
rain 24hr
cm
rain mn
cm
humidity
%
barometer
mb
20260901204526 22 169 3.2 11.3 0.00 0.33 0.33 87 1015.4
20260901203047 23 170 4.8 9.7 0.00 0.33 0.33 86 1015.5
20260901201528 23 196 1.6 4.8 0.00 0.33 0.33 86 1015.4
20260901200037 23 208 1.6 11.3 0.00 0.33 0.33 86 1015.4
20260901194540 23 150 1.6 6.4 0.00 0.33 0.33 86 1015.2
20260901193021 23 188 1.6 4.8 0.00 0.33 0.33 86 1015.1
20260901191527 22 188 1.6 3.2 0.00 0.33 0.33 88 1015.2
20260901190032 22 188 0.0 3.2 0.00 0.33 0.33 89 1015.2
20260901184534 22 188 0.0 6.4 0.00 0.33 0.33 88 1015.2
20260901183041 22 144 1.6 8.0 0.00 0.33 0.33 88 1015.1
20260901181526 22 182 4.8 12.9 0.00 0.33 0.33 87 1015.0
20260901180031 22 142 1.6 8.0 0.00 0.33 0.33 88 1014.9
20260901174532 23 26 3.2 12.9 0.00 0.33 0.33 85 1014.9
20260901173049 22 169 0.0 6.4 0.00 0.33 0.33 85 1014.7
20260901171526 22 256 1.6 8.0 0.00 0.33 0.33 86 1014.7
20260901170033 22 198 1.6 6.4 0.00 0.33 0.33 86 1014.8
20260901164510 23 252 1.6 9.7 0.00 0.33 0.33 87 1014.8
20260901163015 22 144 3.2 12.9 0.00 0.36 0.33 87 1014.6
20260901161520 21 134 4.8 12.9 0.00 0.36 0.33 91 1014.7
20260901160031 21 154 4.8 12.9 0.00 0.36 0.33 92 1014.8
20260901154530 20 131 6.4 11.3 0.03 0.36 0.33 92 1014.9
20260901153012 20 146 6.4 9.7 0.03 0.36 0.33 93 1014.9
20260901151518 20 172 8.0 14.5 0.03 0.36 0.33 93 1014.7
20260901150024 20 172 8.0 16.1 0.03 0.36 0.33 97 1014.6
20260901144530 19 149 11.3 20.9 0.00 0.33 0.30 98 1014.6
20260901143042 18 142 8.0 16.1 0.00 0.33 0.30 98 1014.4
20260901141516 18 190 6.4 16.1 0.00 0.33 0.30 98 1014.5
20260901140028 17 150 6.4 12.9 0.00 0.33 0.30 98 1014.6
20260901134527 17 132 3.2 14.5 0.00 0.33 0.30 99 1014.8
20260901133029 17 132 4.8 11.3 0.00 0.33 0.30 99 1014.8
20260901131514 17 175 6.4 11.3 0.00 0.33 0.30 99 1014.7
20260901130034 17 165 4.8 12.9 0.00 0.33 0.30 99 1014.9
20260901124523 17 136 8.0 14.5 0.00 0.33 0.30 99 1015.0
20260901123028 17 162 6.4 14.5 0.00 0.33 0.30 99 1015.1
20260901121532 17 171 6.4 16.1 0.00 0.33 0.30 99 1015.1
20260901120027 17 140 4.8 12.9 0.00 0.33 0.30 99 1015.2
20260901114521 17 161 4.8 9.7 0.00 0.33 0.30 99 1015.2
20260901113034 17 157 3.2 8.0 0.00 0.33 0.30 98 1015.2
20260901111532 17 154 1.6 9.7 0.00 0.33 0.30 98 1015.2
20260901110040 17 174 4.8 9.7 0.00 0.33 0.30 98 1014.7
20260901104519 17 195 1.6 9.7 0.00 0.33 0.30 99 1015.1
20260901103028 17 130 0.0 6.4 0.00 0.33 0.30 98 1015.1
20260901101530 17 167 4.8 8.0 0.03 0.33 0.30 98 1015.1
20260901100033 17 204 1.6 8.0 0.05 0.33 0.30 98 1015.2
20260901094534 17 170 1.6 8.0 0.05 0.33 0.30 98 1015.3
20260901093024 17 195 1.6 9.7 0.05 0.33 0.30 98 1015.4
20260901091525 17 213 1.6 4.8 0.03 0.30 0.28 98 1015.5
20260901090028 17 119 1.6 4.8 0.00 0.28 0.25 98 1015.5
20260901084530 17 209 1.6 4.8 0.03 0.28 0.25 98 1015.3
20260901083033 17 154 1.6 9.7 0.03 0.28 0.25 98 1015.3
20260901081506 17 151 4.8 9.7 0.05 0.28 0.25 98 1015.1
20260901080006 17 184 3.2 8.0 0.20 0.28 0.25 98 1015.4
20260901074508 17 174 0.0 9.7 0.23 0.25 0.23 98 1015.5
20260901073007 17 187 1.6 8.0 0.23 0.25 0.23 98 1015.7
20260901071518 17 152 4.8 9.7 0.20 0.23 0.20 98 1015.7
20260901070017 17 170 3.2 9.7 0.05 0.08 0.05 97 1015.7
20260901064505 17 194 4.8 8.0 0.00 0.03 0.00 97 1016.0
20260901063007 17 209 4.8 9.7 0.00 0.03 0.00 97 1016.1
20260901061508 17 157 3.2 9.7 0.00 0.03 0.00 96 1016.3
20260901060008 17 150 1.6 9.7 0.00 0.03 0.00 96 1016.4
20260901054512 17 134 4.8 12.9 0.00 0.03 0.00 96 1016.5
20260901053010 17 192 1.6 9.7 0.00 0.03 0.00 96 1016.7
20260901051509 17 145 1.6 6.4 0.00 0.03 0.00 95 1016.9
20260901050010 17 130 4.8 12.9 0.00 0.03 0.00 95 1016.7
20260901044514 17 174 3.2 8.0 0.00 0.03 0.00 95 1016.7
20260901043008 17 153 3.2 8.0 0.00 0.03 0.00 94 1017.1
20260901041511 17 163 3.2 8.0 0.00 0.03 0.00 94 1017.1
20260901040012 17 163 1.6 3.2 0.00 0.03 0.00 93 1017.4
20260901034522 17 163 1.6 6.4 0.00 0.03 0.03 93 1017.3
20260901033012 17 155 3.2 8.0 0.00 0.03 0.03 93 1017.2
20260901031507 17 140 3.2 6.4 0.00 0.03 0.03 92 1017.2
20260901030013 17 134 1.6 8.0 0.00 0.03 0.03 92 1017.3
20260901024514 17 180 4.8 11.3 0.00 0.03 0.03 92 1017.2
20260901023019 17 188 3.2 8.0 0.00 0.03 0.03 92 1017.4
20260901021520 17 153 1.6 9.7 0.00 0.03 0.03 92 1017.6
20260901020012 17 163 3.2 8.0 0.00 0.03 0.03 92 1017.6
20260901014516 17 159 4.8 9.7 0.00 0.03 0.03 92 1017.6
20260901013018 17 160 3.2 8.0 0.00 0.03 0.03 92 1017.8
20260901011523 17 180 0.0 6.4 0.00 0.03 0.03 92 1018.0
20260901010018 17 163 1.6 6.4 0.00 0.03 0.03 92 1018.1
20260901004516 17 153 3.2 8.0 0.00 0.03 0.03 91 1017.8
20260901003020 17 159 4.8 11.3 0.00 0.03 0.03 91 1017.6
20260901001519 17 166 3.2 9.7 0.00 0.03 0.03 91 1017.4
20260901000021 17 175 4.8 11.3 0.00 0.03 0.03 91 1017.5
20260831234519 17 160 4.8 9.7 0.00 0.03 0.03 91 1017.4
20260831233017 17 150 4.8 9.7 0.00 0.03 0.03 91 1017.6
20260831231519 17 176 1.6 11.3 0.00 0.03 0.03 91 1017.7
20260831230019 17 175 6.4 12.9 0.00 0.03 0.03 91 1017.7
20260831224512 18 161 1.6 8.0 0.00 0.03 0.03 90 1017.9
20260831223019 18 161 3.2 14.5 0.00 0.03 0.03 90 1018.0
20260831221523 18 159 6.4 17.7 0.00 0.03 0.03 90 1018.0
20260831220025 18 185 4.8 12.9 0.00 0.03 0.03 90 1018.1
20260831214508 18 137 4.8 11.3 0.00 0.03 0.03 90 1018.1
20260831213014 17 143 3.2 11.3 0.00 0.03 0.03 91 1018.2
20260831211520 17 173 3.2 16.1 0.00 0.03 0.03 91 1018.4
20260831210025 17 153 6.4 14.5 0.00 0.03 0.03 91 1018.5